Lima, OH

8:39 AM EDT on April 23, 2017 (GMT -0400)
Lima Allen County

Weather History for KAOH - March, 2013

Change the Weather History Date:

Tuesday, March 19, 2013

  Actual Average (KFDY) Record (KFDY)
Temperature  
Mean Temperature 30 °F -  
Max Temperature 36 °F 46 °F 82 °F (2012)
Min Temperature 24 °F 29 °F 12 °F (1965)
Degree Days  
Heating Degree Days 35    
Moisture  
Dew Point 19 °F    
Average Humidity 64    
Maximum Humidity 81    
Minimum Humidity 52    
Precipitation  
Precipitation 0.00 in - - ()
Sea Level Pressure  
Sea Level Pressure 29.88 in    
Wind  
Wind Speed 24 mph (WSW)    
Max Wind Speed 32 mph    
Max Gust Speed 43 mph    
Visibility 10 miles    
Events      
Averages and records for this station are not official NWS values.
T = Trace of Precipitation, MM = Missing Value Source: NWS Daily Summary

Daily Weather History Graph

Daily Weather History Graph

Search for Another Location

Airport or City:

Trip Planner

Search our weather history database for the weather conditions in past years. The results will help you decide how hot, cold, wet, or windy it might be!

Date:

Astronomy

Mar. 19, 2013 Rise Set
Actual Time 7:40 AM EDT 7:47 PM EDT
Civil Twilight 7:13 AM EDT 8:14 PM EDT
Nautical Twilight 6:41 AM EDT 8:46 PM EDT
Astronomical Twilight 6:09 AM EDT 9:19 PM EDT
Moon 12:28 PM EDT (3/19) 2:35 AM EDT (3/19)
Length of Visible Light 13h 01m
Length of Day
12h 06m
Waxing Crescent, 49% of the Moon is Illuminated
Mar 19
Waxing Crescent
Mar 19
First Quarter
Mar 27
Full
Apr 3
Last Quarter
Apr 10
New

Hourly Weather History & Observations

Time (EDT) Temp. Windchill Dew Point Humidity Pressure Visibility Wind Dir Wind Speed Gust Speed Precip Events Conditions
12:31 AM 35.6 °F 25.9 °F 30.2 °F 81% 29.73 in 10.0 mi WSW 16.1 mph - 0.00 in   Overcast
12:53 AM 36.0 °F 25.0 °F 30.0 °F 79% 29.75 in 10.0 mi WSW 20.7 mph 26.5 mph 0.00 in   Mostly Cloudy
1:53 AM 34.0 °F 22.7 °F 28.0 °F 79% 29.76 in 10.0 mi West 19.6 mph 33.4 mph N/A   Overcast
2:07 AM 33.8 °F 22.2 °F 28.4 °F 81% 29.74 in 10.0 mi West 20.7 mph - N/A   Overcast
2:39 AM 32.0 °F 17.6 °F 24.8 °F 75% 29.75 in 10.0 mi West 29.9 mph 36.8 mph N/A   Partly Cloudy
2:53 AM 30.9 °F 17.8 °F 21.9 °F 69% 29.78 in 10.0 mi West 23.0 mph 38.0 mph N/A   Clear
3:53 AM 28.9 °F 13.2 °F 19.9 °F 69% 29.81 in 10.0 mi WSW 31.1 mph 35.7 mph N/A   Clear
4:18 AM 28.4 °F 13.0 °F 19.4 °F 69% 29.79 in 10.0 mi WSW 28.8 mph 38.0 mph N/A   Mostly Cloudy
4:53 AM 28.0 °F 12.5 °F 19.0 °F 69% 29.82 in 10.0 mi WSW 28.8 mph 35.7 mph N/A   Overcast
5:27 AM 26.6 °F 11.7 °F 17.6 °F 69% 29.80 in 10.0 mi WSW 24.2 mph 31.1 mph N/A   Overcast
5:53 AM 26.1 °F 10.7 °F 18.0 °F 71% 29.83 in 10.0 mi WSW 25.3 mph 33.4 mph N/A   Overcast
6:53 AM 26.1 °F 9.8 °F 16.0 °F 66% 29.86 in 10.0 mi WSW 28.8 mph 33.4 mph N/A   Overcast
7:49 AM 24.8 °F 10.3 °F 15.8 °F 69% 29.83 in 10.0 mi West 20.7 mph 36.8 mph N/A   Overcast
7:53 AM 25.0 °F 9.9 °F 15.1 °F 66% 29.86 in 10.0 mi West 23.0 mph 36.8 mph N/A   Overcast
8:07 AM 26.6 °F 13.4 °F 15.8 °F 64% 29.84 in 10.0 mi WSW 18.4 mph 29.9 mph N/A   Overcast
8:33 AM 26.6 °F 11.1 °F 15.8 °F 64% 29.84 in 10.0 mi WSW 26.5 mph 40.3 mph N/A   Overcast
8:53 AM 26.1 °F 9.8 °F 16.0 °F 66% 29.86 in 10.0 mi West 28.8 mph 35.7 mph N/A   Overcast
9:53 AM 27.0 °F 11.0 °F 16.0 °F 63% 29.87 in 10.0 mi WSW 28.8 mph 36.8 mph 0.00 in   Overcast
10:53 AM 28.0 °F 13.6 °F 16.0 °F 61% 29.88 in 10.0 mi WSW 24.2 mph 36.8 mph 0.00 in   Overcast
11:53 AM 30.0 °F 15.2 °F 15.1 °F 54% 29.90 in 10.0 mi WSW 28.8 mph 36.8 mph N/A   Overcast
12:53 PM 30.0 °F 14.9 °F 16.0 °F 56% 29.91 in 10.0 mi WSW 29.9 mph 36.8 mph 0.00 in   Overcast
1:53 PM 30.9 °F 15.7 °F 16.0 °F 54% 29.93 in 10.0 mi WSW 32.2 mph 42.6 mph N/A   Overcast
2:53 PM 30.9 °F 15.9 °F 17.1 °F 57% 29.96 in 10.0 mi West 31.1 mph 42.6 mph 0.00 in   Overcast
3:53 PM 32.0 °F 17.2 °F 18.0 °F 56% 29.96 in 10.0 mi West 32.2 mph 42.6 mph 0.00 in   Overcast
4:53 PM 32.0 °F 17.6 °F 18.0 °F 56% 29.97 in 10.0 mi West 29.9 mph 35.7 mph 0.00 in   Overcast
5:53 PM 34.0 °F 20.3 °F 18.0 °F 52% 29.98 in 10.0 mi West 29.9 mph 36.8 mph N/A   Overcast
6:53 PM 34.0 °F 21.5 °F 19.0 °F 54% 29.99 in 10.0 mi West 24.2 mph 34.5 mph N/A   Partly Cloudy
7:53 PM 33.1 °F 20.3 °F 17.1 °F 52% 30.00 in 10.0 mi West 24.2 mph 32.2 mph N/A   Clear
8:53 PM 32.0 °F 20.5 °F 18.0 °F 56% 30.02 in 10.0 mi West 18.4 mph 26.5 mph N/A   Clear
9:53 PM 32.0 °F 19.2 °F 18.0 °F 56% 30.03 in 10.0 mi West 23.0 mph 31.1 mph N/A   Clear
10:53 PM 32.0 °F 20.1 °F 18.0 °F 56% 30.03 in 10.0 mi West 19.6 mph - N/A   Clear
11:53 PM 32.0 °F 19.8 °F 17.1 °F 54% 30.02 in 10.0 mi West 20.7 mph 29.9 mph N/A   Clear